Location: Falniów
(50.3639°N, 19.9642°E)
Time: 18:24:19
(UTC+00:00)

SL-08 R/B - Pass Details

Date: 23 April 2026
Orbit: 667 x 728 km, 98.5° (Epoch: 13 May)

Event Time Altitude Azimuth Distance (km) Brightness Sun altitude
Rises 19:09:36 0° 16° (NNE) 3,162 7.0 -12.2°
Reaches altitude 10° 19:11:54 10° 18° (NNE) 2,237 6.2 -12.5°
Maximum altitude 19:16:50 74° 104° (ESE) 763 3.3 -13.1°
Drops below altitude 10° 19:21:42 10° 189° (S) 2,212 5.6 -13.7°
Sets 19:23:57 0° 191° (SSW) 3,123 6.4 -14.0°
